Skip Page Navigation
NASA JPL Caltech
NASA Logo - Jet Propulsion Laboratory + View the NASA Portal
+ Center for Near-Earth Object Studies
JPL Home Earth Solar System Stars & Galaxies Technology
JPL Solar System Dynamics
BODIES ORBITS EPHEMERIDES TOOLS PHYSICAL DATA DISCOVERY FAQ SITE MAP
JPL Small-Body Database Browser
Search: [ help ]  
245 Vera (A885 CA)
Classification: Main-belt Asteroid          SPK-ID: 2000245
Ephemeris | Orbit Diagram | Orbital Elements | Mission Design | Physical Parameters | Discovery Circumstances | Close-Approach Data ]

[ hide orbit diagram ]

For accurate long-term ephemerides, please instead use our Horizons system.This orbit viewer was implemented using two-body methods, and hence should not be used for determining accurate long-term trajectories (over several years or decades) or planetary encounter circumstances.


[ revert to old Java-based viewer ]

Orbital Elements at Epoch 2459000.5 (2020-May-31.0) TDB
Reference: JPL 115 (heliocentric ecliptic J2000)
 Element Value Uncertainty (1-sigma)   Units 
e .1966744399433779 3.9905e-08  
a 3.096638089972966 1.1774e-08 au
q 2.487608527920202 1.2591e-07 au
i 5.178680111571444 4.4908e-06 deg
node 61.06693599982661 4.7581e-05 deg
peri 331.5930326250052 4.8745e-05 deg
M 11.51387619798831 1.1347e-05 deg
tp 2458936.841975244575
(2020-Mar-28.34197524)
6.2683e-05 TDB
period 1990.371315261932
5.45
1.1352e-05
3.108e-08
d
yr
n .1808707738297686 1.0315e-09 deg/d
Q 3.705667652025731 1.409e-08 au
  Orbit Determination Parameters
   # obs. used (total)      2775  
   data-arc span      49540 days (135.63 yr)  
   first obs. used      1885-03-09  
   last obs. used      2020-10-27  
   planetary ephem.      DE431  
   SB-pert. ephem.      SB431-N16  
   condition code      0  
   norm. resid. RMS      .44574  
   source      ORB  
   producer      Otto Matic  
   solution date      2020-Nov-13 04:31:46  

Additional Information
 Earth MOID = 1.49546 au 
 Jupiter MOID = 1.73363 au 
 T_jup = 3.187 
[ show covariance matrix ]

Ephemeris | Orbit Diagram | Orbital Elements | Mission Design | Physical Parameters | Discovery Circumstances | Close-Approach Data ]

Physical Parameter Table
Parameter Symbol Value Units Sigma Reference Notes
absolute magnitude H 7.8   n/a MPO502155 IRAS observations used: 5
diameter diameter 75.949 km 2.626 urn:nasa:pds:neowise_diameters_albedos::2.0[mainbelt] (http://adsabs.harvard.edu/abs/2014ApJ...791..121M)  
rotation period rot_per 14.38 h n/a LCDB (Rev. 2019-August); Warner et al., 2009 Published Reference List:
[Debehogne, H.; Lagerkvist, C.-I.; Zappala, V. (1982) Astron. Astrophys. Suppl. Ser. 50, 277-281.]
[Hanus, J.; Durech, J.; Oszkiewicz, D.A.; Behrend, R.; et al. (2016) Astron. Astrophys. 586, A108.]
geometric albedo albedo 0.228   0.036 urn:nasa:pds:neowise_diameters_albedos::2.0[mainbelt] (http://adsabs.harvard.edu/abs/2014ApJ...791..121M)  
B-V BV 0.841   0.013 EAR-A-5-DDR-UBV-MEAN-VALUES-V1.2 #obs=5; phase (min.=5.56, mean=8.29, max.=16.51) deg.
U-B UB 0.476   0.010 EAR-A-5-DDR-UBV-MEAN-VALUES-V1.2 #obs=6; phase (min.=5.56, mean=7.87, max.=16.51) deg.
Tholen spectral type spec_T S   n/a EAR-A-5-DDR-TAXONOMY-V4.0 used 7 color indices
SMASSII spectral type spec_B S   n/a EAR-A-5-DDR-TAXONOMY-V4.0 based on a high-resolution spectrum by Xu et al. (1995) or Bus and Binzel (2002)

245 Vera (A885 CA)          Discovered 1885-Feb-06 by Pogson, N. R. at Madras
Reference: DISCOVERY.DBLast Updated: 2003-08-29

[ show close-approach data ]
Alternate Designations
 A885 CA = A919 HB 
Ephemeris | Orbit Diagram | Orbital Elements | Mission Design | Physical Parameters | Discovery Circumstances | Close-Approach Data ]
ABOUT SSD CREDITS/AWARDS PRIVACY/COPYRIGHT GLOSSARY LINKS
FirstGov 2020-Nov-27 07:06 UT
(server date/time)  
NASA Home Page
Site Manager:   Ryan S. Park
Webmaster  Alan B. Chamberlin